TimeHST,TemperatureF,Dew PointF,Humidity,Sea Level PressureIn,VisibilityMPH,Wind Direction,Wind SpeedMPH,Gust SpeedMPH,PrecipitationIn,Events,Conditions,WindDirDegrees,DateUTC
12:10 AM,73.4,64.4,73,30.02,10.0,Variable,3.5,-,N/A,,Light Drizzle,0,2013-08-19 10:10:00
12:19 AM,73.4,64.4,73,30.02,10.0,ENE,5.8,-,N/A,,Mostly Cloudy,70,2013-08-19 10:19:00
12:55 AM,72.7,65.7,79,30.01,10.0,ENE,3.5,-,0.00,,Overcast,70,2013-08-19 10:55:00
1:55 AM,72.5,65.3,78,29.98,10.0,Calm,Calm,-,N/A,,Overcast,0,2013-08-19 11:55:00
2:55 AM,71.8,64.9,79,29.96,10.0,NE,6.9,-,N/A,,Clear,50,2013-08-19 12:55:00
3:55 AM,71.8,64.6,78,29.96,10.0,NE,6.9,-,N/A,,Clear,50,2013-08-19 13:55:00
4:55 AM,67.1,63.1,87,29.96,10.0,WNW,4.6,-,N/A,,Clear,300,2013-08-19 14:55:00
5:55 AM,67.1,63.1,87,29.97,10.0,NW,3.5,-,N/A,,Mostly Cloudy,310,2013-08-19 15:55:00
6:55 AM,67.1,63.5,88,29.98,10.0,NW,3.5,-,N/A,,Partly Cloudy,310,2013-08-19 16:55:00
7:55 AM,72.5,66.0,80,30.01,10.0,Calm,Calm,-,N/A,,Partly Cloudy,0,2013-08-19 17:55:00
8:55 AM,77.2,65.5,67,30.01,10.0,ENE,5.8,-,N/A,,Scattered Clouds,60,2013-08-19 18:55:00
9:55 AM,79.7,64.0,59,30.01,10.0,ESE,8.1,-,N/A,,Partly Cloudy,110,2013-08-19 19:55:00
10:55 AM,79.7,63.5,58,30.01,10.0,ENE,8.1,16.1,N/A,,Mostly Cloudy,60,2013-08-19 20:55:00
11:55 AM,82.2,60.1,47,29.99,10.0,Variable,4.6,-,N/A,,Partly Cloudy,0,2013-08-19 21:55:00
12:55 PM,83.1,56.7,40,29.98,10.0,East,9.2,-,N/A,,Scattered Clouds,80,2013-08-19 22:55:00
1:55 PM,83.1,60.6,46,29.96,10.0,SE,5.8,-,N/A,,Clear,130,2013-08-19 23:55:00
2:55 PM,83.7,57.6,41,29.95,10.0,ESE,12.7,-,N/A,,Clear,110,2013-08-20 00:55:00
3:55 PM,82.9,60.1,46,29.94,10.0,East,10.4,-,N/A,,Clear,90,2013-08-20 01:55:00
4:55 PM,81.1,60.8,50,29.94,10.0,East,10.4,-,N/A,,Clear,80,2013-08-20 02:55:00
5:55 PM,78.3,62.2,58,29.94,10.0,ENE,9.2,-,N/A,,Clear,70,2013-08-20 03:55:00
6:55 PM,75.7,63.0,64,29.96,10.0,NE,9.2,-,N/A,,Clear,50,2013-08-20 04:55:00
7:55 PM,74.7,63.7,69,29.97,10.0,NNE,4.6,-,N/A,,Partly Cloudy,30,2013-08-20 05:55:00
8:55 PM,74.3,64.6,72,29.97,10.0,NNE,8.1,-,N/A,,Scattered Clouds,20,2013-08-20 06:55:00
9:55 PM,72.1,64.0,76,29.99,10.0,Calm,Calm,-,N/A,,Overcast,0,2013-08-20 07:55:00
10:55 PM,70.7,64.0,79,30.00,10.0,WNW,3.5,-,N/A,,Scattered Clouds,290,2013-08-20 08:55:00
11:55 PM,70.5,63.9,79,29.99,10.0,Calm,Calm,-,N/A,,Partly Cloudy,0,2013-08-20 09:55:00